Regional Weather Roundup
Issued by NWS

Home | Current Version | Previous Version | Text Only | Print | Product List | Glossary Off
Versions: 1 2 3 4 5 6 7 8 9 10 11 12 13 14 15 16 17 18 19 20 21 22 23 24 25 26 27 28 29 30 31 32 33 34 35 36 37 38 39 40 41 42 43 44 45 46 47 48 49 50

044
ASUS43 KFSD 221302
RWRSD

WEATHER ROUNDUP FOR SOUTH DAKOTA
NATIONAL WEATHER SERVICE SIOUX FALLS SD
800 AM CDT FRI SEP 22 2017

NOTE: "FAIR" INDICATES FEW OR NO CLOUDS BELOW 12,000 FEET WITH NO
SIGNIFICANT WEATHER AND/OR OBSTRUCTIONS TO VISIBILITY.


SDZ001>005-009-010-012>017-221400-
NORTHWEST AND NORTH CENTRAL SOUTH DAKOTA

CITY           SKY/WX    TMP DP  RH WIND       PRES   REMARKS
BUFFALO          N/A     52  37  56 N16       29.78R
FAITH            N/A     54  47  77 N25G31    29.71R
MOBRIDGE       CLOUDY    62  53  72 NE15G22   29.63S
$$

SDZ012>016-024>037-041>051-057-063-072>074-221400-
SOUTHWEST AND SOUTH CENTRAL SOUTH DAKOTA

CITY           SKY/WX    TMP DP  RH WIND       PRES   REMARKS
RAPID CTY ARPT CLOUDY    52  37  58 N23G30    29.77S
PIERRE         CLEAR     60  59  96 CALM      29.58R
CUSTER         CLEAR     46  40  79 N7        29.81R
ELLSWORTH AFB  CLOUDY    51  39  62 N16       29.78R
PHILIP         LGT RAIN  57  49  74 NW14      29.66R
PINE RIDGE     CLOUDY    52  41  66 NW6       29.77R
SPEARFISH      CLOUDY    48  36  61 W6        29.86R
WINNER         FAIR      75  67  76 S16G24    29.61R
$$

SDZ004>011-016>023-039-040-221400-
NORTHEAST SOUTH DAKOTA

CITY           SKY/WX    TMP DP  RH WIND       PRES   REMARKS
ABERDEEN       CLEAR     61  61 100 NE6       29.66F
WATERTOWN      CLEAR     72  71  97 SE14      29.70S
BROOKINGS      CLEAR     73  71  93 S13       29.74R
SISSETON         N/A     69  69 100 SE5       29.71R
$$

SDZ017-020-022-023-036>040-048>070-221400-
SOUTHEAST SOUTH DAKOTA

CITY           SKY/WX    TMP DP  RH WIND       PRES   REMARKS
SIOUX FALLS    PTCLDY    77  72  84 S17G25    29.73S
HURON          CLEAR     73  71  93 SE13      29.63S
CHAMBERLAIN    CLEAR     76  71  85 SE8       29.62R
MITCHELL       CLEAR     76  71  85 SE13      29.64F
YANKTON        PTCLDY    77  71  82 S15G25    29.70R
$$

ABBREVIATIONS USED IN REMARKS
   TC - TEMPERATURE IN CELSIUS
  WCI - WIND CHILL INDEX
   HX - HEAT INDEX
  VSB - VISIBILITY





USA.gov is the U.S. government's official web portal to all federal, state and local government web resources and services.